Regional Weather Roundup
Issued by NWS Green Bay, WI

Home | Current Version | Previous Version | Graphics & Text | Print | Product List | Glossary Off
Versions: 1 2 3 4 5 6 7 8 9 10 11 12 13 14 15 16 17 18 19 20 21 22 23 24 25 26 27 28 29 30 31 32 33 34 35 36 37 38 39 40 41 42 43 44 45 46 47 48 49 50

000
ASUS43 KGRB 302300
RWRGRB

NORTH-CENTRAL AND NORTHEAST WISCONSIN REGIONAL WEATHER ROUNDUP
NATIONAL WEATHER SERVICE GREEN BAY WI
600 PM CDT TUE JUN 30 2015

WIZ005-009-010>012-018-019-010000-
NORTH CENTRAL WISCONSIN

CITY           SKY/WX    TMP DP  RH WIND       PRES   REMARKS
IRONWOOD       SUNNY     61  48  63 E8        29.93F
MANITOWISH WTR NOT AVBL
ARBOR VITAE    NOT AVBL
EAGLE RIVER    NOT AVBL
LAND O LAKES   NOT AVBL
RHINELANDER    SUNNY     61  47  59 N7        29.94F
PHILLIPS       NOT AVBL
ANTIGO         NOT AVBL
TOMAHAWK       NOT AVBL
MERRILL        NOT AVBL
$$

WIZ013-073-010000-
NORTHEAST WISCONSIN

CITY           SKY/WX    TMP DP  RH WIND       PRES   REMARKS
IRON MOUNTAIN  CLOUDY    55  45  68 N13       29.92R
MARINETTE      CLOUDY    63  50  63 N14G20    29.88R
$$

WIZ017-030-035>037-045-010000-
CENTRAL WISCONSIN

CITY           SKY/WX    TMP DP  RH WIND       PRES   REMARKS
MEDFORD        NOT AVBL
WAUSAU         MOSUNNY   65  50  58 N10       29.89F
MOSINEE        CLOUDY    64  55  72 N14       29.92R
MARSHFIELD     CLOUDY    67  51  56 N10       29.90F
WISC RAPIDS    MOSUNNY   69  52  54 N16       29.90S
STEVENS POINT  NOT AVBL
WAUPACA        NOT AVBL
SHAWANO        NOT AVBL
CLINTONVILLE   NOT AVBL
$$

WIZ038-039-048-051-010000-
FOX VALLEY

CITY           SKY/WX    TMP DP  RH WIND       PRES   REMARKS
NWS GREEN BAY  CLOUDY    68  56  65 N14       29.87R
APPLETON       PTSUNNY   68  55  64 N12       29.87R
OSHKOSH        MOSUNNY   71  57  61 N14       29.85S
FOND DU LAC    PTSUNNY   71  58  63 NE13      29.86R
$$

WIZ022-050-052-010000-
EAST CENTRAL WISCONSIN

CITY           SKY/WX    TMP DP  RH WIND       PRES   REMARKS
STURGEON BAY   CLOUDY    61  52  72 N16       29.90R
MANITOWOC      NOT AVBL
SHEBOYGAN      CLOUDY    61  56  83 NE10      29.87R
$$

LMZ563-521-522-541>543-010000-
LAKESHORE

STATION/POSITION TIME  TEMP    WIND        PRES    VSBY  WAVE
                       AIR SEA DIR/SP/G                  HT/PER
                 (UTC) (F)     (DEG/KT/KT) (MB)    (MI)  (FT/S)
SHEBOYGAN LKSHOR 2200   56      50/  5/  6 1010.9R
KEWAUNEE LKSHORE 2200   59      50/  7/  8 1010.3R
ALGOMA MARINA    2210           70/  6/  9   N/A
NORTHPORT PIER   2200   57     350/ 21/ 24 1011.2S
N MID LAKE BUOY  2150   50 42  320/ 14/ 16 1010.9R         2/ 4
SISTER BAY LKSHO 2214   60      40/ 17/ 19   N/A
CHAMBERS ISLAND  2200   63     340/ 17/ 19 1011.2S
MENOMINEE LKSHOR 2200   63     330/ 15/ 18 1011.7R
$$



USA.gov is the U.S. government's official web portal to all federal, state and local government web resources and services.